Location: Sears
(37.7625°N, 100.1060°W)
Time: 21:47:09
(UTC+00:00)

SL-19 R/B - Pass Details

Date: 29 October 2020
Orbit: 358 x 808 km, 99.4° (Epoch: 01 December)

Event Time Altitude Azimuth Distance (km) Brightness Sun altitude
Rises 11:58:06 0° 5° (N) 2,196 7.4 -13.4°
Reaches altitude 10° 12:00:04 10° 356° (N) 1,356 6.2 -13.0°
Maximum altitude 12:02:43 36° 287° (WNW) 612 4.0 -12.5°
Drops below altitude 10° 12:05:30 10° 219° (SW) 1,426 6.1 -12.0°
Sets 12:07:37 0° 210° (SSW) 2,333 7.3 -11.6°
